Temp
18 18 18 17 17 17 17 17 17 17 16 16 16 16 15 15 14 14 14 14 14 13 13 13 13 13 13 12 11 11 10 10 10 10 10 10 10 10 10 10 10 10
18 18 18 17 17 17 17 17 17 17 16 16 16 15 15 14 14 14 14 14 13 13 13 13 13 13 12 12 11 11 10 10 10 9 9 9 9 9 9 9 9 10
18 18 18 17 17 17 17 17 16 16 16 16 16 15 15 14 14 14 13 13 13 13 13 13 13 12 12 11 11 11 10 10 9 9 9 9 9 9 9 9 9 9
18 18 18 17 17 17 17 17 16 16 16 16 16 15 15 14 14 14 13 13 13 13 12 12 12 12 11 11 11 10 10 10 9 9 9 9 9 8 8 8 8 8
18 18 17 17 17 17 17 17 16 16 16 16 15 15 15 14 14 14 13 13 13 13 12 12 12 12 11 11 10 10 10 9 9 9 9 8 8 8 8 8 8 8
18 17 17 17 17 17 17 17 16 16 16 15 15 15 15 14 14 14 14 13 13 12 12 12 12 11 11 10 10 10 9 9 9 9 8 8 8 8 8 8 7 7
17 17 17 17 17 17 17 16 16 16 16 15 15 15 14 14 14 14 13 13 12 12 12 12 11 11 11 10 10 10 9 9 9 8 8 8 8 7 7 7 7 7
17 17 17 17 17 16 16 16 16 16 15 15 15 14 14 14 14 13 13 12 12 12 11 11 11 11 10 10 10 9 9 8 8 8 8 7 7 7 7 7 7 7
17 17 16 16 16 16 16 16 16 15 15 15 14 14 14 13 13 13 12 12 12 11 11 11 11 10 10 9 9 9 8 8 8 7 7 7 7 7 7 7 6 6
15 16 16 16 16 16 15 15 15 15 14 14 14 14 13 13 12 12 12 12 11 11 11 11 10 10 9 9 9 8 8 8 7 7 7 7 7 7 7 7 6 6
14 14 15 15 16 15 15 15 15 14 14 14 13 13 13 12 12 12 12 11 11 11 10 10 9 9 9 9 8 8 8 8 7 7 7 7 6 6 6 6 6 6
14 14 14 15 15 15 15 15 14 14 14 13 13 13 12 12 12 12 11 11 11 10 10 9 9 9 9 8 8 8 8 8 7 7 7 6 6 6 6 6 6 6
14 14 14 15 15 15 15 14 14 14 13 13 13 13 12 12 12 11 11 11 10 10 9 9 9 9 8 8 8 8 8 7 7 7 6 6 6 6 6 6 6 6
14 15 15 15 15 15 15 14 14 14 13 13 13 12 12 12 11 11 11 10 10 9 9 9 9 8 8 8 8 7 7 7 6 6 6 6 6 5 5 5 5 5
14 14 14 15 15 14 14 14 14 13 13 13 12 12 12 11 11 10 10 10 9 9 9 8 8 8 7 7 7 6 6 6 6 6 6 6 5 5 5 5 5 5
14 13 13 14 14 14 14 14 14 13 13 12 12 12 11 11 10 10 10 9 9 8 8 8 7 7 7 6 6 6 6 5 5 5 5 5 5 5 5 5 5 5
13 12 13 13 14 14 14 14 13 13 13 12 12 12 11 11 10 10 9 9 8 8 8 7 7 7 6 6 5 5 5 5 5 5 5 5 5 5 5 5 5 5
11 11 12 13 13 14 14 14 13 13 13 12 12 11 11 10 10 9 9 9 8 8 7 7 7 6 6 6 5 5 5 4 4 4 4 4 4 4 4 4 4 4
12 12 12 12 13 13 14 13 13 13 12 12 12 11 10 10 9 9 9 8 8 8 7 7 7 6 6 6 5 5 4 4 4 3 3 3 3 3 3 3 4 4
12 13 12 12 13 13 13 12 13 12 12 12 11 11 10 9 9 9 8 8 8 7 7 7 6 6 6 5 5 5 4 4 3 3 3 3 3 3 3 3 3 3
11 11 11 11 12 12 12 12 12 12 12 12 11 10 10 9 9 9 8 8 8 7 7 7 6 6 6 5 5 5 4 3 3 3 2 2 2 2 2 2 2 3
10 10 9 10 11 11 12 12 12 12 12 11 10 10 9 9 9 9 8 8 8 7 7 7 6 6 6 5 5 5 4 3 3 2 2 2 2 1 1 2 2 2
10 10 9 9 10 11 11 11 12 12 11 11 10 9 9 9 9 9 8 8 8 7 7 6 6 6 6 5 5 4 4 3 2 2 2 1 1 1 1 1 1 1
10 10 10 10 11 11 11 11 11 11 11 10 10 9 9 9 9 9 8 8 7 7 6 6 6 6 6 5 5 4 3 3 2 2 1 1 1 0 0 0 0 1
11 11 10 11 11 10 10 11 11 11 10 10 10 10 10 9 9 9 8 7 7 7 6 6 6 6 6 5 5 4 3 3 2 1 1 1 0 0 -0 -0 -0 -0
11 10 10 10 10 10 10 10 10 10 10 10 10 10 10 9 9 9 8 7 7 7 7 6 6 6 5 5 4 4 3 3 2 1 1 0 0 -0 -0 -0 -1 -1
Height
797 798 800 802 804 806 808 809 811 812 813 814 815 816 817 818 819 820 820 821 821 821 822 822 822 821 821 821 821 821 820 820 820 819 818 817 817 816 816 816 816 816
795 797 798 800 802 804 806 808 809 811 812 813 814 816 817 818 819 819 820 821 821 821 821 822 822 821 821 821 821 821 820 820 820 819 819 818 817 817 816 815 815 815
794 796 797 798 800 802 804 806 808 809 810 812 813 814 816 817 818 819 820 820 820 821 821 821 821 821 821 821 820 820 820 819 819 819 819 818 818 817 816 815 815 814
793 794 795 797 799 801 803 805 806 808 809 811 812 813 815 816 817 818 819 820 820 820 821 821 821 821 821 820 820 819 819 818 818 818 817 817 817 817 816 815 815 814
792 793 794 796 798 800 801 803 804 806 808 809 811 812 813 815 816 817 818 819 819 820 820 820 821 821 821 820 820 819 818 818 817 817 816 816 815 815 815 814 814 813
790 792 793 795 797 798 799 801 803 805 806 808 810 811 812 814 815 816 817 818 819 820 820 820 821 821 820 820 820 819 818 817 817 816 815 814 814 814 813 813 812 811
786 789 791 794 796 797 798 799 801 803 804 807 808 810 811 813 814 816 816 818 818 819 820 820 821 821 820 820 820 820 819 818 817 816 815 814 813 812 812 811 810 809
783 786 788 791 794 796 797 798 800 801 803 805 807 808 810 812 813 815 816 817 818 819 819 820 820 821 820 820 820 820 819 818 817 816 815 814 813 812 811 810 809 807
781 783 786 789 792 794 796 798 799 801 803 804 806 808 809 811 812 814 815 816 817 818 819 819 820 820 820 820 820 819 819 818 818 817 816 814 813 812 811 809 808 807
781 782 784 786 790 792 795 798 799 801 803 804 806 808 809 810 811 813 814 815 816 817 818 819 819 819 819 819 819 819 818 818 817 816 815 814 813 812 810 809 808 807
782 784 784 786 788 791 794 797 799 801 803 804 806 808 809 810 811 812 812 813 815 816 816 817 818 818 819 818 818 818 817 817 816 816 815 813 812 811 810 809 808 806
777 782 785 786 787 789 792 795 798 800 802 804 806 807 808 809 810 811 811 812 813 814 815 816 817 817 817 817 817 817 816 816 815 814 813 812 811 810 809 808 807 806
770 773 779 783 785 786 789 792 795 798 800 802 804 805 807 808 809 810 810 811 811 812 814 815 815 816 816 816 816 815 815 814 813 812 811 810 809 808 807 807 806 805
766 767 770 775 780 783 785 788 791 794 797 800 801 803 805 806 808 809 809 809 810 811 812 813 813 814 814 814 814 813 813 812 811 810 809 808 807 806 805 804 803 802
767 767 766 768 772 777 780 783 787 791 794 796 799 801 802 804 806 807 807 808 808 809 810 811 812 812 812 812 812 811 811 810 809 808 807 805 804 803 802 801 800 800
764 765 765 765 768 772 776 778 782 787 790 793 796 798 800 802 804 805 805 806 806 807 808 809 810 810 810 810 810 809 809 808 807 806 805 803 802 800 799 798 797 796
760 761 763 764 766 769 772 774 777 781 786 789 792 795 798 800 801 803 803 803 804 805 807 808 808 808 808 807 807 807 806 805 804 803 802 801 799 798 796 794 793 792
760 762 764 765 765 766 767 770 773 777 781 786 789 792 795 797 799 800 801 802 802 803 805 805 806 806 805 805 804 804 803 802 801 800 799 798 797 795 793 792 790 788
758 761 763 765 766 766 765 768 771 774 778 783 787 791 792 794 796 797 799 800 800 801 803 803 804 804 803 803 801 800 800 799 798 797 796 795 794 792 791 789 787 785
754 756 758 760 762 765 767 768 770 773 778 783 787 790 791 793 794 795 797 798 798 800 800 801 802 802 801 800 799 797 796 795 795 794 793 792 790 789 787 785 784 782
754 756 757 758 759 762 766 768 769 773 778 783 786 788 790 792 793 794 795 795 796 798 798 799 800 799 799 797 795 794 793 792 792 790 789 788 787 785 784 781 780 778
753 755 759 761 760 763 768 770 771 774 778 782 785 787 789 791 791 792 793 793 795 796 796 797 797 797 796 794 792 791 790 789 788 787 786 784 782 781 779 777 776 775
750 752 757 760 760 763 768 771 774 776 778 781 784 786 788 789 789 790 790 792 793 794 795 795 795 795 793 791 790 789 787 786 785 783 782 780 778 777 775 773 772 771
748 750 753 756 759 764 768 771 775 777 779 781 783 785 786 787 787 788 789 790 791 792 792 793 792 792 790 789 787 786 785 783 782 779 778 776 773 772 771 769 768 767
745 747 749 751 756 762 767 771 774 778 779 781 783 784 784 785 786 786 787 788 789 789 790 790 789 789 788 786 785 784 782 781 779 777 774 772 770 768 766 765 763 762
744 747 748 749 755 763 767 771 774 776 779 780 781 782 783 784 785 785 786 786 786 787 787 787 787 786 785 784 783 781 780 778 777 775 772 769 767 764 762 760 758 757
Wind_Speed
27 26 25 25 25 24 22 20 18 16 14 12 11 9 8 7 6 5 5 5 5 6 7 8 10 10 10 10 11 12 12 12 13 13 13 13 13 12 12 11 11 10
29 28 27 26 26 26 24 22 19 17 15 13 11 10 9 9 8 7 7 7 6 7 7 8 10 10 10 11 11 12 14 14 13 13 13 14 14 14 13 13 13 12
30 30 29 28 28 27 25 23 21 19 17 15 13 11 11 10 10 9 8 8 7 7 7 8 9 10 11 11 12 14 15 15 14 14 14 14 14 14 14 15 15 15
32 31 30 29 28 27 26 25 23 21 19 16 14 13 13 11 10 10 9 8 7 7 7 8 9 10 11 11 12 14 15 14 14 14 15 14 14 15 15 16 17 17
33 32 31 30 29 27 27 26 25 23 21 19 16 16 15 13 11 10 10 9 8 8 9 9 10 11 11 12 13 14 15 15 14 14 15 16 16 16 17 18 18 19
35 33 33 32 30 29 28 27 26 24 23 21 19 18 17 15 13 12 11 10 9 8 9 10 11 11 12 12 13 14 15 15 15 15 16 16 17 18 18 19 19 20
36 35 33 32 31 29 28 27 26 25 24 23 21 20 19 17 15 13 12 10 8 8 8 9 10 12 12 12 13 14 14 14 15 15 16 17 18 19 19 20 21 21
37 36 34 32 31 29 28 27 26 25 25 24 23 21 20 18 16 14 12 9 7 7 7 9 10 12 12 12 12 12 13 13 14 15 16 17 18 18 19 19 20 21
36 35 34 32 31 29 27 26 25 24 24 24 23 21 19 17 15 13 10 7 6 6 7 9 11 11 10 10 10 11 13 14 14 15 15 16 17 18 18 18 19 20
31 33 33 32 31 28 26 25 23 23 23 23 22 20 18 16 14 11 8 6 6 7 8 10 10 9 8 9 10 11 13 14 15 16 16 16 16 17 17 17 17 18
26 27 29 31 30 27 25 23 22 22 22 21 19 17 16 15 13 10 8 7 7 7 8 8 7 7 7 9 11 13 14 16 17 18 18 17 17 16 16 16 17 18
26 25 26 28 28 26 24 22 21 21 21 19 16 15 14 13 11 9 8 7 7 7 6 5 5 7 8 10 12 15 17 19 19 19 19 19 18 17 16 17 17 17
32 30 29 29 28 26 24 22 21 21 19 17 15 14 13 11 10 9 8 7 7 6 4 5 6 7 9 11 14 17 18 19 20 20 21 20 20 19 18 18 18 18
34 34 34 33 31 28 25 23 22 21 19 17 15 14 12 11 10 9 9 7 5 4 4 5 6 7 9 12 15 16 18 19 20 21 22 22 22 21 20 19 19 19
30 34 35 35 33 30 27 25 23 21 19 17 15 13 12 11 10 10 8 6 3 2 3 3 4 6 9 12 14 16 17 19 21 22 23 24 24 24 23 22 21 21
33 35 36 36 34 32 30 27 25 22 20 17 15 14 13 12 11 10 7 4 2 2 1 1 4 7 10 12 13 15 17 19 21 22 23 24 25 26 25 25 24 24
34 34 36 35 34 33 31 29 27 25 21 18 16 15 14 13 12 10 7 4 4 3 1 3 6 9 12 14 15 16 18 20 21 23 23 24 25 27 27 27 27 27
27 28 31 34 35 35 33 31 29 27 22 20 18 17 16 15 13 10 7 5 4 2 2 5 9 12 13 15 17 18 19 20 22 23 24 25 26 27 28 28 29 29
29 29 30 33 35 34 33 32 31 27 23 21 20 18 17 16 13 10 8 6 4 1 3 6 9 12 15 17 18 19 18 19 21 23 25 26 27 27 28 28 29 29
32 34 35 36 36 34 33 33 30 25 22 20 20 19 18 16 13 10 8 5 3 1 4 6 8 12 17 19 20 21 19 19 21 23 25 27 28 28 29 29 29 29
26 27 28 31 34 33 33 32 27 23 21 21 20 19 17 15 12 9 7 5 2 2 4 6 9 14 17 19 21 22 21 21 22 24 26 27 28 28 29 29 29 29
24 21 20 23 30 31 30 28 24 21 21 21 20 18 16 13 11 9 6 4 3 4 6 8 10 14 16 19 22 23 22 22 23 25 27 28 28 29 29 29 28 28
24 24 22 24 29 30 28 25 21 19 20 21 20 18 15 13 10 8 7 5 5 6 7 9 10 13 16 19 22 23 23 23 24 26 27 28 30 29 29 28 27 27
25 28 29 30 29 27 23 20 17 17 19 20 19 16 13 11 10 8 8 7 7 8 9 9 11 13 16 19 22 24 24 24 25 27 28 30 31 30 29 29 28 27
29 32 34 35 31 23 18 16 16 18 18 17 15 12 11 10 10 9 9 9 9 10 11 11 12 14 16 19 22 24 25 25 26 27 29 31 31 31 30 29 29 29
30 32 33 32 27 19 17 19 20 19 17 15 13 11 10 10 11 11 11 10 10 11 13 13 14 16 17 20 22 24 26 27 27 27 30 31 31 30 30 30 31 31
Wind_Direction
205 205 207 210 214 219 220 215 213 213 216 216 216 216 211 212 225 233 246 268 292 312 321 327 338 349 355 358 359 358 357 354 349 345 343 343 342 340 336 333 334 334
206 206 208 210 213 218 221 219 217 218 219 220 222 222 218 223 232 235 240 253 271 291 302 313 329 339 344 347 351 352 351 349 348 345 342 340 339 338 336 332 329 326
208 208 208 210 212 215 219 219 219 221 222 220 221 222 222 227 234 236 239 248 263 279 292 309 326 333 335 338 342 344 345 347 349 347 346 344 341 339 337 334 329 325
211 211 211 212 213 215 218 219 218 218 218 218 219 222 224 226 229 233 240 250 261 277 294 310 323 328 329 333 335 337 341 346 347 346 344 344 343 341 338 335 332 329
213 214 214 214 214 215 217 219 218 217 215 216 218 220 222 225 227 230 238 248 259 277 295 309 318 322 325 328 329 332 336 339 341 339 336 336 336 334 332 331 330 329
215 215 215 215 215 216 218 218 218 217 215 214 215 218 219 222 226 231 238 246 258 275 292 306 313 316 318 319 321 326 330 331 333 332 329 328 329 328 327 326 324 325
214 215 215 215 217 218 218 217 216 215 214 212 212 214 215 216 222 228 235 243 256 276 290 300 306 306 306 308 315 323 326 328 330 329 327 326 326 324 324 324 322 321
214 214 213 213 215 217 216 214 213 213 211 210 209 209 210 213 217 220 225 236 252 272 285 291 295 295 296 304 315 322 326 330 331 329 327 327 326 325 324 324 322 319
213 212 210 209 211 213 213 212 212 210 209 208 206 204 205 208 211 212 214 227 247 263 275 282 284 285 292 306 317 324 328 331 330 328 326 324 323 322 322 322 320 317
215 211 207 206 208 210 211 210 209 207 206 204 202 200 200 201 202 204 209 223 240 254 264 269 271 278 293 308 316 324 328 327 326 323 321 319 318 318 317 314 313 310
216 212 206 204 205 207 208 208 207 204 202 200 199 199 198 199 200 204 213 226 238 248 253 256 265 282 299 310 318 325 325 323 323 320 316 313 311 312 313 309 305 303
209 210 209 205 204 204 204 204 203 201 198 197 198 199 199 202 206 210 219 230 236 238 242 254 276 293 302 311 318 321 320 318 317 316 314 310 307 306 307 305 302 301
205 205 205 206 205 202 199 197 197 196 195 194 197 199 201 206 211 218 224 225 223 226 246 276 292 299 306 312 315 315 315 315 315 314 312 310 308 305 303 301 299 298
204 202 201 202 203 199 193 190 189 190 191 192 194 197 202 210 216 219 215 209 215 245 281 294 300 307 311 313 315 316 316 315 315 314 312 310 308 306 304 302 300 299
207 204 200 196 194 191 186 184 184 185 187 189 192 196 203 208 211 209 204 202 224 274 289 294 305 312 315 318 319 321 320 317 314 312 310 309 306 305 303 301 299 298
211 204 196 189 187 185 182 180 181 183 185 187 192 197 200 201 201 198 197 199 197 182 195 290 317 321 323 323 323 322 318 315 313 312 310 308 305 303 301 299 298 297
207 198 189 186 184 181 180 179 179 181 183 187 191 194 196 197 197 195 193 190 182 179 222 316 330 330 327 323 318 316 313 311 311 310 309 308 305 302 299 298 297 295
199 190 186 187 186 181 180 180 179 178 180 185 190 193 195 194 193 193 191 188 190 203 311 336 338 336 334 330 323 317 312 310 309 308 307 306 305 302 299 297 295 293
195 190 189 190 187 182 180 178 176 175 177 185 191 193 194 191 188 188 185 185 195 232 340 343 347 348 349 348 340 330 320 314 311 309 306 304 303 301 298 295 293 291
197 196 196 192 186 182 180 176 173 172 177 186 191 191 190 186 181 182 181 185 204 311 339 335 346 354 355 353 348 340 330 319 313 309 306 304 301 299 296 293 291 290
198 202 201 191 181 178 177 173 169 171 178 187 192 191 189 184 181 184 186 190 222 302 311 309 327 345 353 354 350 345 336 324 315 310 306 304 301 298 295 292 290 289
201 202 202 187 173 169 169 168 168 173 181 187 188 185 184 183 185 192 199 205 235 277 282 287 311 335 349 354 352 348 338 326 317 310 305 302 299 297 294 292 290 289
195 189 184 174 165 163 165 166 170 177 183 186 183 179 181 189 195 202 210 224 239 252 264 280 307 331 344 349 351 348 340 329 319 310 305 301 297 296 294 292 290 288
185 179 171 163 158 157 157 160 173 185 187 186 183 183 189 199 206 213 220 224 232 244 258 281 308 326 336 341 345 346 341 332 322 312 305 301 298 296 294 292 290 287
181 175 165 156 151 148 149 165 187 191 186 185 189 194 204 209 215 225 225 218 225 246 263 284 306 319 327 334 340 343 340 334 325 314 305 302 300 298 296 294 292 289
173 165 154 147 147 153 164 178 186 182 179 186 196 206 216 221 226 232 227 221 233 254 270 286 300 312 320 328 335 339 338 334 325 313 304 301 300 299 297 295 294 292